[[{"header":{"parameterUnit":"m.s-1","parameterCategory":2,"la1":30.2992,"la2":30.254,"lo1":-89.0895,"lo2":-89.0443,"dy":0.0025,"dx":0.0025,"nx":19,"ny":19,"refTime":"2026-03-12T21:00:00:Z","depth":"0","parameterNumber":2,"parameterNumberName":"U-component_of_CURRENTS"},"data":[0,0,0,-0.1828,-0.1828,-0.1844,-0.1844,-0.182,-0.1819,0,0,0,0,0,0,0,0,0,0,0,-0.1814,-0.1814,-0.1828,-0.1828,-0.1844,-0.1844,-0.182,-0.1819,0,0,0,0,0,0,0,0,0,0,0,-0.1814,-0.1814,-0.1814,-0.1828,-0.1844,-0.1844,-0.182,-0.1818,0,0,0,0,0,0,0,0,0,0,-0.1807,-0.1797,-0.1814,-0.1814,-0.1829,-0.1844,-0.1844,-0.1818,-0.1818,-0.1802,0,-0.1803,0,-0.1816,-0.1817,-0.1817,0,0,0,-0.1822,-0.1797,-0.181,-0.1814,-0.1829,-0.1844,-0.1835,-0.1818,-0.1818,-0.1801,-0.1803,-0.1803,-0.1815,-0.1817,-0.1817,-0.1757,-0.1757,0,0,-0.1822,-0.1807,-0.181,-0.181,-0.1831,-0.1835,-0.1836,-0.1818,-0.1811,-0.1803,-0.1803,-0.1815,-0.1817,-0.1817,-0.1758,-0.1757,0,0,0,-0.1823,-0.1807,-0.1821,-0.181,-0.182,-0.1835,-0.1837,-0.1811,-0.1819,-0.1803,-0.1815,-0.1817,-0.1816,-0.1758,-0.1758,-0.1743,0,0,0,-0.1822,-0.1808,-0.1821,-0.1811,-0.182,-0.1821,-0.183,-0.182,-0.1819,-0.1815,-0.1817,-0.1816,-0.1759,-0.1758,-0.1744,-0.1744,0,0,0,-0.1814,-0.1807,-0.1811,-0.181,-0.1822,-0.1822,-0.1827,-0.182,-0.1826,-0.1817,-0.1816,-0.1759,-0.1758,-0.1745,-0.1745,-0.1743,0,0,0,-0.1797,-0.1787,-0.181,-0.1801,-0.1822,-0.1819,-0.1828,-0.1821,-0.1813,-0.1817,-0.1759,-0.1758,-0.1746,-0.1746,-0.1744,-0.1593,-0.1577,0,0,-0.1775,-0.1784,-0.1779,-0.1801,-0.1788,-0.1817,-0.1795,-0.1791,-0.179,-0.1761,-0.176,-0.1744,-0.1746,-0.1743,-0.1536,-0.1521,0,0,0,-0.1766,-0.1752,-0.1755,-0.1754,-0.1771,-0.1774,-0.1777,-0.177,-0.1747,-0.1782,-0.1728,-0.1729,-0.1728,-0.1638,-0.1626,-0.1563,-0.1753,-0.1753,-0.1753,-0.1699,-0.1715,-0.1698,-0.1712,-0.1717,-0.1733,-0.1731,-0.1718,-0.1721,-0.1703,-0.1705,-0.1676,-0.1578,-0.1568,-0.1505,-0.1688,-0.1688,-0.1687,-0.1687,-0.1642,-0.1622,-0.1652,-0.1639,-0.1666,-0.1657,-0.1672,-0.1678,-0.1663,-0.1666,-0.1667,-0.1611,-0.1554,-0.1491,-0.1686,-0.1686,-0.1687,-0.1687,-0.1687,-0.1571,-0.1565,-0.1574,-0.1578,-0.1588,-0.1622,-0.1626,-0.1645,-0.1646,-0.1648,-0.1558,-0.1556,-0.1513,-0.1651,-0.1651,-0.1651,-0.1651,-0.1651,-0.1651,-0.1495,-0.1505,-0.1496,-0.1518,-0.153,-0.1559,-0.1602,-0.1595,-0.1552,-0.1528,-0.1526,-0.1471,-0.1666,-0.1682,-0.165,-0.1651,-0.1651,-0.1651,-0.1651,-0.138,-0.1418,-0.1398,-0.1409,-0.1447,-0.1432,-0.1505,-0.1434,-0.1441,-0.1375,-0.1289,-0.1459,-0.1453,-0.146,-0.147,-0.1387,-0.1387,-0.1387,-0.1386,-0.1312,-0.1329,-0.1304,-0.1309,-0.1334,-0.1362,-0.126,-0.1211,-0.1145,-0.1089,-0.1148,-0.1104,-0.1118,-0.1093,-0.1108,-0.1111,-0.0939,-0.0939,-0.0938,-0.1243,-0.1257,-0.1209,-0.1235,-0.1267,-0.1255,-0.1099,-0.0951,-0.0886,-0.0922,-0.1094,-0.1113,-0.1056,-0.1082,-0.1052,-0.1078,-0.1088,0,0]},{"header":{"parameterUnit":"m.s-1","parameterCategory":2,"la1":30.2992,"la2":30.254,"lo1":-89.0895,"lo2":-89.0443,"dy":0.0025,"dx":0.0025,"nx":19,"ny":19,"refTime":"2026-03-12T21:00:00:Z","depth":"0","parameterNumber":3,"parameterNumberName":"V-component_of_CURRENTS"},"data":[0,0,0,-0.0135,-0.0134,-0.0082,-0.0082,0.0013,0.0013,0,0,0,0,0,0,0,0,0,0,0,-0.0155,-0.0155,-0.0135,-0.0134,-0.0082,-0.0082,0.0013,0.0013,0,0,0,0,0,0,0,0,0,0,0,-0.0155,-0.0155,-0.0155,-0.0134,-0.0083,-0.0082,0.0012,-0.0031,0,0,0,0,0,0,0,0,0,0,-0.0083,-0.0113,-0.0155,-0.0155,-0.0133,-0.0083,-0.0082,-0.0033,-0.0028,-0.0006,0,-0.0008,0,0.0002,0.0019,0.002,0,0,0,-0.0122,-0.0117,-0.0102,-0.0155,-0.0133,-0.0083,-0.0102,-0.0031,-0.0025,0.0001,-0.0007,-0.0003,0.0003,0.002,0.002,0.0059,0.0059,0,0,-0.0125,-0.0142,-0.0107,-0.0099,-0.0132,-0.0104,-0.0101,-0.0027,-0.0027,-0.0006,-0.0001,0.0005,0.0021,0.0021,0.0059,0.0059,0,0,0,-0.0141,-0.0144,-0.0131,-0.0103,-0.0098,-0.0103,-0.0099,-0.003,-0.0026,0.0,0.0006,0.0021,0.0022,0.006,0.0059,-0.0004,0,0,0,-0.0142,-0.0154,-0.0133,-0.0141,-0.01,-0.0068,-0.0103,-0.0031,-0.0022,0.0006,0.0021,0.0023,0.006,0.006,-0.0002,-0.0029,0,0,0,-0.0155,-0.0155,-0.0153,-0.0143,-0.0125,-0.0069,-0.006,-0.0029,-0.0019,0.002,0.0023,0.006,0.006,0.0,-0.0026,0.0028,0,0,0,-0.0167,-0.0192,-0.0154,-0.0178,-0.0126,-0.0118,-0.0061,-0.0044,-0.0019,0.0022,0.006,0.0059,0.0001,-0.0023,0.0029,0.0109,0.0111,0,0,-0.0211,-0.0198,-0.0213,-0.0178,-0.0194,-0.0123,-0.0126,-0.0066,-0.0016,0.0041,0.0042,-0.0003,-0.0025,0.0028,0.0075,0.0079,0,0,0,-0.0235,-0.0246,-0.0245,-0.0242,-0.0215,-0.0182,-0.0123,-0.0088,-0.0037,-0.0005,0.0004,-0.0009,0.0028,0.0078,0.008,0.0175,0.0057,0.0057,0.0057,-0.031,-0.0295,-0.0319,-0.0296,-0.0283,-0.022,-0.0187,-0.0124,-0.0078,-0.0068,-0.0056,-0.0055,-0.0006,-0.0002,0.0093,-0.005,-0.0051,-0.0051,-0.0051,-0.0379,-0.0392,-0.0367,-0.0383,-0.0337,-0.0322,-0.0238,-0.0196,-0.0122,-0.0107,-0.0067,0.0011,-0.0003,0.0098,-0.0055,-0.0054,-0.0054,-0.0053,-0.0053,-0.0426,-0.043,-0.0431,-0.0441,-0.0428,-0.0374,-0.0322,-0.0263,-0.0173,-0.0152,-0.0022,-0.0019,0.0073,-0.0107,-0.0107,-0.0107,-0.0107,-0.0107,-0.0107,-0.0469,-0.047,-0.0496,-0.0499,-0.0501,-0.047,-0.0367,-0.0285,-0.0142,-0.0075,-0.0073,0.0087,-0.0071,-0.0065,-0.0106,-0.0106,-0.0106,-0.0106,-0.0106,-0.0521,-0.0518,-0.0562,-0.0574,-0.0567,-0.0491,-0.0406,-0.018,-0.0086,0.0013,0.0161,-0.0002,0.0045,0.0044,0.0054,0.0047,0.0047,0.0047,0.0047,-0.0552,-0.0556,-0.0607,-0.063,-0.0615,-0.0504,-0.0276,-0.0082,0.0145,0.0256,0.0275,0.0296,0.0285,0.0347,0.0339,0.0356,0.0425,0.0426,0.0426,-0.0579,-0.0595,-0.063,-0.0649,-0.0633,-0.0468,-0.019,0.0082,0.0355,0.0448,0.039,0.0374,0.0407,0.0383,0.0481,0.0463,0.049,0,0]}],[{"header":{"parameterUnit":"m.s-1","parameterCategory":2,"la1":30.2992,"la2":30.254,"lo1":-89.0895,"lo2":-89.0443,"dy":0.0025,"dx":0.0025,"nx":19,"ny":19,"refTime":"2026-03-12T21:00:00:Z","depth":"2","parameterNumber":2,"parameterNumberName":"U-component_of_CURRENTS"},"data":[0,0,0,-0.1409,-0.141,-0.1467,-0.1468,-0.1514,-0.1515,0,0,0,0,0,0,0,0,0,0,0,-0.1384,-0.1385,-0.1409,-0.141,-0.1467,-0.1468,-0.1514,-0.1515,0,0,0,0,0,0,0,0,0,0,0,-0.1384,-0.1384,-0.1385,-0.141,-0.1467,-0.1468,-0.1514,-0.1477,0,0,0,0,0,0,0,0,0,0,-0.1424,-0.1402,-0.1384,-0.1385,-0.1411,-0.1467,-0.1468,-0.1475,-0.1479,-0.1482,0,-0.1491,0,-0.1507,-0.1518,-0.1518,0,0,0,-0.1407,-0.1399,-0.142,-0.1385,-0.1411,-0.1467,-0.1441,-0.1478,-0.1482,-0.1487,-0.1492,-0.1494,-0.1508,-0.1518,-0.1518,-0.1525,-0.1524,0,0,-0.1404,-0.1389,-0.1417,-0.1423,-0.1427,-0.1439,-0.1443,-0.1481,-0.1481,-0.1492,-0.1496,-0.1509,-0.1518,-0.1518,-0.1525,-0.1525,0,0,0,-0.1397,-0.1387,-0.1407,-0.1421,-0.1435,-0.1441,-0.1445,-0.148,-0.1488,-0.1496,-0.1509,-0.1518,-0.1519,-0.1525,-0.1525,-0.1526,0,0,0,-0.1395,-0.1383,-0.1406,-0.1397,-0.1434,-0.1461,-0.1443,-0.1485,-0.149,-0.1509,-0.1518,-0.1519,-0.1525,-0.1525,-0.1526,-0.1526,0,0,0,-0.1381,-0.1382,-0.139,-0.1396,-0.1424,-0.1461,-0.1472,-0.1487,-0.1498,-0.1518,-0.1519,-0.1526,-0.1525,-0.1527,-0.1527,-0.1512,0,0,0,-0.1362,-0.1379,-0.1389,-0.1412,-0.1423,-0.1461,-0.1472,-0.1501,-0.1519,-0.1519,-0.1525,-0.1525,-0.1527,-0.1527,-0.1513,-0.139,-0.1378,0,0,-0.1374,-0.138,-0.1394,-0.1405,-0.1437,-0.1453,-0.1476,-0.1504,-0.1507,-0.1511,-0.1512,-0.1526,-0.1527,-0.1512,-0.1358,-0.1346,0,0,0,-0.1392,-0.1397,-0.141,-0.1429,-0.146,-0.1474,-0.1501,-0.1502,-0.1506,-0.1515,-0.1514,-0.1515,-0.1506,-0.1432,-0.1423,-0.1522,-0.1522,-0.1522,-0.1522,-0.137,-0.1394,-0.141,-0.1436,-0.1459,-0.1488,-0.1497,-0.1497,-0.1508,-0.1499,-0.1507,-0.1484,-0.1405,-0.1397,-0.1497,-0.1497,-0.1497,-0.1497,-0.1497,-0.1365,-0.1364,-0.1396,-0.1418,-0.1442,-0.146,-0.1484,-0.1491,-0.1486,-0.149,-0.1482,-0.1426,-0.1387,-0.1497,-0.1497,-0.1497,-0.1497,-0.1497,-0.1497,-0.1327,-0.1329,-0.1351,-0.1377,-0.1402,-0.144,-0.1446,-0.1475,-0.1478,-0.1479,-0.1388,-0.1386,-0.1488,-0.147,-0.147,-0.147,-0.147,-0.147,-0.147,-0.1268,-0.1293,-0.1296,-0.1334,-0.1349,-0.1379,-0.1425,-0.1421,-0.139,-0.1372,-0.1371,-0.1475,-0.1476,-0.1486,-0.1469,-0.1469,-0.1469,-0.147,-0.147,-0.12,-0.1221,-0.122,-0.1233,-0.1268,-0.1242,-0.1319,-0.1266,-0.1275,-0.1223,-0.1303,-0.1308,-0.1293,-0.1299,-0.1303,-0.1241,-0.1241,-0.1241,-0.1241,-0.1142,-0.1157,-0.1138,-0.1141,-0.1153,-0.1171,-0.1067,-0.1032,-0.1059,-0.1056,-0.1065,-0.104,-0.1052,-0.1025,-0.1037,-0.1036,-0.0904,-0.0904,-0.0904,-0.1083,-0.1094,-0.1051,-0.1072,-0.1088,-0.1054,-0.0903,-0.077,-0.0773,-0.0894,-0.1046,-0.1211,-0.1195,-0.1207,-0.1184,-0.1195,-0.1202,0,0]},{"header":{"parameterUnit":"m.s-1","parameterCategory":2,"la1":30.2992,"la2":30.254,"lo1":-89.0895,"lo2":-89.0443,"dy":0.0025,"dx":0.0025,"nx":19,"ny":19,"refTime":"2026-03-12T21:00:00:Z","depth":"2","parameterNumber":3,"parameterNumberName":"V-component_of_CURRENTS"},"data":[0,0,0,-0.0364,-0.0363,-0.0314,-0.0314,-0.0213,-0.0212,0,0,0,0,0,0,0,0,0,0,0,-0.0379,-0.0379,-0.0364,-0.0363,-0.0314,-0.0314,-0.0213,-0.0212,0,0,0,0,0,0,0,0,0,0,0,-0.0379,-0.0379,-0.0379,-0.0363,-0.0314,-0.0314,-0.0213,-0.0257,0,0,0,0,0,0,0,0,0,0,-0.0308,-0.0336,-0.0379,-0.0379,-0.0363,-0.0314,-0.0314,-0.0259,-0.0254,-0.0228,0,-0.0227,0,-0.0222,-0.0205,-0.0205,0,0,0,-0.0351,-0.034,-0.0326,-0.0379,-0.0363,-0.0314,-0.0333,-0.0256,-0.0251,-0.0221,-0.0226,-0.0223,-0.022,-0.0205,-0.0204,-0.0139,-0.0139,0,0,-0.0354,-0.0368,-0.033,-0.0322,-0.0358,-0.0335,-0.0332,-0.0253,-0.0251,-0.0226,-0.022,-0.0219,-0.0204,-0.0203,-0.0139,-0.0139,0,0,0,-0.037,-0.037,-0.0357,-0.0326,-0.0323,-0.0334,-0.033,-0.0254,-0.025,-0.0219,-0.0218,-0.0203,-0.0202,-0.0139,-0.0139,-0.0185,0,0,0,-0.0371,-0.038,-0.0359,-0.0366,-0.0325,-0.0294,-0.0333,-0.0255,-0.0246,-0.0218,-0.0203,-0.0201,-0.0139,-0.0139,-0.0184,-0.0212,0,0,0,-0.038,-0.0381,-0.0377,-0.0367,-0.0351,-0.0296,-0.0287,-0.0253,-0.0246,-0.0205,-0.0201,-0.0139,-0.0139,-0.0183,-0.021,-0.0184,0,0,0,-0.0391,-0.0399,-0.0378,-0.0385,-0.0352,-0.0331,-0.0287,-0.0264,-0.0234,-0.0203,-0.0139,-0.0139,-0.0183,-0.0208,-0.0183,-0.0162,-0.0164,0,0,-0.0409,-0.0402,-0.0406,-0.0386,-0.0384,-0.0337,-0.0322,-0.0265,-0.0223,-0.0159,-0.0158,-0.0185,-0.021,-0.0184,-0.0164,-0.0166,0,0,0,-0.0417,-0.0421,-0.0416,-0.041,-0.0385,-0.0358,-0.0304,-0.0273,-0.0219,-0.0207,-0.0172,-0.0186,-0.0168,-0.0153,-0.0155,-0.0139,-0.0139,-0.0139,-0.0139,-0.0458,-0.0445,-0.0453,-0.0434,-0.0418,-0.0366,-0.0336,-0.0279,-0.0238,-0.0223,-0.0215,-0.0217,-0.0202,-0.0203,-0.0199,-0.0199,-0.0199,-0.0199,-0.02,-0.0495,-0.0503,-0.0484,-0.0488,-0.0453,-0.0433,-0.0359,-0.0323,-0.0262,-0.0242,-0.0221,-0.0193,-0.0207,-0.0203,-0.0202,-0.0202,-0.0202,-0.0201,-0.0201,-0.0527,-0.0529,-0.0529,-0.0534,-0.052,-0.0475,-0.0442,-0.0381,-0.0306,-0.0292,-0.0231,-0.023,-0.0238,-0.0267,-0.0267,-0.0267,-0.0267,-0.0267,-0.0268,-0.0562,-0.056,-0.0583,-0.0581,-0.0587,-0.0568,-0.049,-0.0439,-0.034,-0.0279,-0.0278,-0.0239,-0.0237,-0.024,-0.0268,-0.0268,-0.0268,-0.0268,-0.0268,-0.06,-0.0602,-0.064,-0.0655,-0.0661,-0.0643,-0.0567,-0.0436,-0.0365,-0.0307,-0.025,-0.025,-0.0225,-0.0222,-0.0224,-0.0246,-0.0246,-0.0246,-0.0246,-0.0628,-0.0632,-0.0687,-0.0718,-0.0726,-0.0679,-0.0582,-0.0422,-0.0286,-0.0216,-0.0217,-0.0209,-0.021,-0.0183,-0.0182,-0.0182,-0.0193,-0.0193,-0.0193,-0.0655,-0.0672,-0.0714,-0.0743,-0.0755,-0.0703,-0.059,-0.0356,-0.0171,-0.0191,-0.0212,-0.0242,-0.0232,-0.0233,-0.0192,-0.019,-0.0191,0,0]}],[{"header":{"parameterUnit":"m.s-1","parameterCategory":2,"la1":30.2992,"la2":30.254,"lo1":-89.0895,"lo2":-89.0443,"dy":0.0025,"dx":0.0025,"nx":19,"ny":19,"refTime":"2026-03-12T21:00:00:Z","depth":"4","parameterNumber":2,"parameterNumberName":"U-component_of_CURRENTS"},"data":[0,0,0,-0.0974,-0.0976,-0.1071,-0.1071,-0.1131,-0.1131,0,0,0,0,0,0,0,0,0,0,0,-0.0944,-0.0945,-0.0974,-0.0976,-0.1071,-0.1071,-0.1131,-0.1131,0,0,0,0,0,0,0,0,0,0,0,-0.0944,-0.0945,-0.0945,-0.0976,-0.1071,-0.1071,-0.1131,-0.1076,0,0,0,0,0,0,0,0,0,0,-0.0991,-0.0973,-0.0944,-0.0945,-0.0977,-0.1071,-0.1072,-0.1074,-0.1079,-0.1069,0,-0.1088,0,-0.1107,-0.1134,-0.1134,0,0,0,-0.098,-0.0969,-0.0991,-0.0946,-0.0978,-0.1071,-0.1029,-0.1077,-0.1083,-0.1076,-0.1089,-0.1092,-0.1108,-0.1134,-0.1134,-0.1191,-0.1191,0,0,-0.0975,-0.0963,-0.0987,-0.0995,-0.1006,-0.1026,-0.1032,-0.1082,-0.109,-0.1089,-0.1094,-0.1109,-0.1134,-0.1134,-0.119,-0.1191,0,0,0,-0.0957,-0.0959,-0.0982,-0.0992,-0.1013,-0.1029,-0.1036,-0.1088,-0.1095,-0.1094,-0.111,-0.1134,-0.1135,-0.119,-0.1191,-0.1201,0,0,0,-0.0954,-0.0949,-0.098,-0.0974,-0.1012,-0.106,-0.1041,-0.1092,-0.1098,-0.1109,-0.1134,-0.1135,-0.119,-0.119,-0.12,-0.1196,0,0,0,-0.0939,-0.0947,-0.0959,-0.0973,-0.1012,-0.106,-0.1071,-0.1094,-0.1106,-0.1134,-0.1135,-0.1189,-0.119,-0.1199,-0.1194,-0.1178,0,0,0,-0.0922,-0.0946,-0.0959,-0.0995,-0.1011,-0.1069,-0.1071,-0.1121,-0.1148,-0.1135,-0.119,-0.1191,-0.1198,-0.1194,-0.1177,-0.1019,0,0,0,-0.094,-0.0948,-0.097,-0.0984,-0.1034,-0.1056,-0.111,-0.1146,-0.1155,-0.1168,-0.1171,-0.12,-0.1194,-0.1178,-0.1073,0,0,0,0,-0.0968,-0.0982,-0.1001,-0.1037,-0.1076,-0.1111,-0.1151,-0.1163,-0.1196,-0.1174,-0.1215,-0.1211,-0.12,-0.1108,-0.1195,-0.1195,-0.1195,-0.1195,-0.1194,-0.0961,-0.0991,-0.1026,-0.1066,-0.1103,-0.1155,-0.1182,-0.1206,-0.1214,-0.1233,-0.1231,-0.1242,-0.1147,-0.1249,-0.1249,-0.125,-0.125,-0.125,-0.125,-0.0972,-0.0985,-0.1033,-0.1077,-0.1118,-0.1163,-0.1208,-0.1225,-0.1246,-0.1254,-0.1242,-0.1141,-0.1251,-0.1251,-0.1251,-0.125,-0.125,-0.125,-0.125,-0.0949,-0.0956,-0.1,-0.1056,-0.1109,-0.1163,-0.118,-0.123,-0.1247,-0.1253,-0.1138,-0.1241,-0.1225,-0.1245,-0.1245,-0.1244,-0.1244,-0.1244,-0.1244,-0.0893,-0.0936,-0.0962,-0.103,-0.106,-0.1105,-0.1167,-0.1164,-0.12,-0.1127,-0.1251,-0.1239,-0.1239,-0.1224,-0.1243,-0.1243,-0.1244,-0.1244,-0.1244,-0.0843,-0.087,-0.0896,-0.0928,-0.0984,-0.1002,-0.1085,-0.1044,-0.1023,-0.0976,-0.1051,-0.1061,-0.1034,-0.1039,-0.1016,-0.0974,-0.0972,-0.097,0,-0.0791,-0.0811,-0.0826,-0.0845,-0.0852,-0.0927,-0.0857,-0.0871,-0.0896,-0.0872,-0.1025,-0.1112,-0.1117,-0.1092,-0.1093,-0.1066,0,0,0,-0.0744,-0.0758,-0.0742,-0.0777,-0.0781,-0.0774,-0.0828,-0.0786,-0.0911,-0.0831,-0.0919,-0.0932,-0.1116,-0.124,-0.1223,-0.1223,-0.1197,0,0]},{"header":{"parameterUnit":"m.s-1","parameterCategory":2,"la1":30.2992,"la2":30.254,"lo1":-89.0895,"lo2":-89.0443,"dy":0.0025,"dx":0.0025,"nx":19,"ny":19,"refTime":"2026-03-12T21:00:00:Z","depth":"4","parameterNumber":3,"parameterNumberName":"V-component_of_CURRENTS"},"data":[0,0,0,-0.0305,-0.0305,-0.0293,-0.0292,-0.0242,-0.0241,0,0,0,0,0,0,0,0,0,0,0,-0.0309,-0.0309,-0.0305,-0.0305,-0.0293,-0.0292,-0.0242,-0.0241,0,0,0,0,0,0,0,0,0,0,0,-0.0308,-0.0309,-0.0309,-0.0305,-0.0293,-0.0292,-0.0242,-0.0258,0,0,0,0,0,0,0,0,0,0,-0.0273,-0.0288,-0.0309,-0.0309,-0.0305,-0.0293,-0.0292,-0.0259,-0.0257,-0.0241,0,-0.0246,0,-0.0246,-0.0238,-0.0238,0,0,0,-0.0296,-0.029,-0.0285,-0.0309,-0.0305,-0.0293,-0.0296,-0.0258,-0.0255,-0.0238,-0.0245,-0.0243,-0.0245,-0.0238,-0.0237,-0.0185,-0.0185,0,0,-0.0296,-0.0304,-0.0287,-0.0284,-0.031,-0.0296,-0.0295,-0.0257,-0.0258,-0.0245,-0.0242,-0.0244,-0.0237,-0.0237,-0.0185,-0.0185,0,0,0,-0.0305,-0.0305,-0.0302,-0.0286,-0.0289,-0.0296,-0.0295,-0.0259,-0.0258,-0.0242,-0.0244,-0.0237,-0.0236,-0.0185,-0.0185,-0.0221,0,0,0,-0.0305,-0.031,-0.0302,-0.0306,-0.029,-0.028,-0.0299,-0.0261,-0.0257,-0.0244,-0.0237,-0.0236,-0.0186,-0.0185,-0.022,-0.0245,0,0,0,-0.0308,-0.0311,-0.0312,-0.0307,-0.0306,-0.0281,-0.0277,-0.026,-0.0258,-0.0238,-0.0236,-0.0186,-0.0185,-0.022,-0.0244,-0.0234,0,0,0,-0.0312,-0.0322,-0.0312,-0.0323,-0.0306,-0.0301,-0.0277,-0.027,-0.0256,-0.0237,-0.0185,-0.0185,-0.022,-0.0243,-0.0234,-0.0236,0,0,0,-0.0327,-0.0324,-0.033,-0.0321,-0.0326,-0.0301,-0.0295,-0.0269,-0.0239,-0.0195,-0.0194,-0.0221,-0.0243,-0.0234,-0.0206,0,0,0,0,-0.0336,-0.0341,-0.034,-0.0342,-0.0332,-0.0319,-0.0292,-0.0269,-0.0231,-0.023,-0.02,-0.0213,-0.0207,-0.0205,-0.0183,-0.0183,-0.0183,-0.0183,-0.0183,-0.0362,-0.0357,-0.0368,-0.036,-0.0355,-0.0327,-0.0308,-0.0266,-0.0241,-0.0224,-0.0228,-0.0226,-0.0224,-0.0204,-0.0205,-0.0205,-0.0205,-0.0205,-0.0205,-0.0388,-0.0395,-0.0389,-0.0399,-0.0382,-0.0373,-0.0321,-0.0297,-0.0253,-0.0235,-0.0225,-0.0225,-0.0208,-0.0207,-0.0207,-0.0207,-0.0206,-0.0206,-0.0206,-0.0406,-0.0409,-0.0418,-0.0433,-0.0434,-0.0408,-0.0391,-0.0346,-0.0289,-0.0281,-0.0256,-0.0241,-0.0255,-0.027,-0.027,-0.027,-0.027,-0.027,-0.0271,-0.0422,-0.0429,-0.0456,-0.0468,-0.0484,-0.0481,-0.0435,-0.0402,-0.0344,-0.0296,-0.0289,-0.0247,-0.0245,-0.0257,-0.0272,-0.0271,-0.0271,-0.0271,-0.0271,-0.0439,-0.0451,-0.0491,-0.0516,-0.0542,-0.0531,-0.0498,-0.0415,-0.0377,-0.0329,-0.029,-0.0288,-0.0273,-0.027,-0.0282,-0.0305,-0.0305,-0.0305,0,-0.0454,-0.0461,-0.0521,-0.0562,-0.0578,-0.0558,-0.0503,-0.0453,-0.0373,-0.0363,-0.038,-0.0339,-0.0337,-0.0324,-0.0321,-0.0338,0,0,0,-0.0468,-0.0487,-0.053,-0.0572,-0.0592,-0.0523,-0.0483,-0.0449,-0.0384,-0.0345,-0.0307,-0.0307,-0.0323,-0.0275,-0.0248,-0.0245,-0.0262,0,0]}]]